www.pogodaiklimat.ru

Погода и климат >> Архив погоды >> Южная Африка >> Ламбертс-Бей


ПОГОДА в Ламбертс-Бей

  • Прогноз погоды в Ламбертс-Бей
  • Монитор погоды в Ламбертс-Бей

АРХИВ ПОГОДЫ в Ламбертс-Бей

Время (UTC), дата Ветер
(напр.,м/с)
 
Видим.   Явления Облачность Т
(С)
Тd
(С)
f
(%)
Тe
(С)
Тes
(С)
Комфортность P
(гПа)
Po
(гПа)
Тmin
(С)
Tmax
(С)
R
(мм)
R24
(мм)
S
(см)
15 10.09 СЗ 2 н/о н/о +16.3 +13.8 85 +17 +17 1014.9 1003.8 +16.3 +19.9
18 10.09 СЗ 2 н/о н/о +14.7 +13.5 93 +15 +15 1015.9 1004.7 +14.7 +19.9 0.2
21 10.09 З 1 н/о н/о +14.9 +12.4 85 +15 +15 1018.0 1006.8 +14.5 +19.9
00 11.09 СВ 3 н/о н/о +14.1 +11.8 86 +13 +13 1012.3 1001.1 +13.7 +19.9 0.2
03 11.09 З 1 н/о н/о +13.5 +12.5 94 +14 +14 1014.7 1003.5 +13.1 +19.9
06 11.09 СВ 2 н/о н/о +13.0 +11.7 92 +12 +12 1015.9 1004.6 +11.8 0.2
09 11.09 З 2 н/о н/о +19.7 +11.5 59 +22 +22 комфорт 1015.4 1004.4 +11.8 +19.7
12 11.09 З 3 н/о н/о +19.8 +11.6 59 +22 +22 комфорт 1013.9 1002.9 +11.8 +20.5
15 11.09 З 2 н/о н/о +16.9 +13.6 81 +17 +17 1014.7 1003.6 +16.9 +20.5
18 11.09 СЗ 1 н/о н/о +14.8 +13.6 93 +15 +15 1015.5 1004.3 +14.6 +20.5
21 11.09 С 1 н/о н/о +14.4 +13.4 94 +15 +15 1015.6 1004.4 +14.0 +20.5
00 12.09 СЗ 1 н/о н/о +14.1 +13.4 96 +14 +14 1016.2 1005.0 +14.0 +20.5
03 12.09 СЗ 1 н/о н/о +13.3 +12.8 97 +13 +13 1016.0 1004.7 +13.3 +20.5
06 12.09 С 3 н/о н/о +12.6 +11.8 95 +11 +11 1016.6 1005.3 +12.3 2
09 12.09 С 3 н/о н/о +13.5 +13.0 97 +12 +12 1017.7 1006.4 +12.3 +13.6
12 12.09 З 3 н/о н/о +15.1 +13.4 90 +15 +15 1017.7 1006.5 +12.3 +18.0 5
15 12.09 ЮЗ 4 н/о н/о +15.8 +10.1 69 +15 +15 1019.9 1008.7 +14.9 +18.0
18 12.09 ЮЗ 2 н/о н/о +12.3 +7.0 70 +11 +11 1022.1 1010.7 +12.3 +18.0 5
21 12.09 С 1 н/о н/о +9.7 +6.0 78 +9 +9 1023.1 1011.6 +9.0 +18.0
00 13.09 СВ 1 н/о н/о +6.9 +5.5 91 +6 +6 1023.7 1012.1 +6.7 +18.0 5
03 13.09 СВ 2 н/о н/о +9.2 +7.4 88 +8 +8 1022.7 1011.2 +6.7 +18.0
06 13.09 С 3 н/о н/о +10.1 +8.5 90 +8 +8 1023.9 1012.4 +6.7 5
09 13.09 В 1 н/о н/о +16.2 +8.7 61 +17 +17 1024.8 1013.5 +6.7 +16.2
12 13.09 З 3 н/о н/о +16.5 +10.4 67 +16 +16 1022.3 1011.1 +6.7 +18.4
15 13.09 ЮЗ 4 н/о н/о +15.1 +10.5 74 +14 +14 1021.7 1010.4 +15.1 +18.4
18 13.09 Ю 3 н/о н/о +10.8 +8.4 85 +9 +9 1020.7 1009.3 +10.8 +18.4 0.2
21 13.09 Ю 3 н/о н/о +9.4 +6.3 81 +7 +7 1021.7 1010.2 +9.4 +18.4
00 14.09 ЮВ 4 н/о н/о +9.3 +6.7 84 +7 +7 1020.0 1008.5 +8.9 +18.4 0.2
03 14.09 В 2 н/о н/о +9.2 +6.3 82 +7 +7 1019.2 1007.7 +8.7 +18.4
06 14.09 В 3 н/о н/о +10.7 +7.0 78 +9 +9 1020.2 1008.8 +8.7 0.2
09 14.09 З 1 н/о н/о +17.8 +10.2 61 +19 +19 1019.1 1008.0 +8.7 +19.1
12 14.09 ЮЗ 4 н/о н/о +19.2 +10.3 56 +20 +20 1017.5 1006.4 +8.7 +21.7
15 14.09 ЮЗ 3 н/о н/о +17.8 +9.7 59 +18 +18 1016.1 1005.0 +17.4 +21.7
18 14.09 Ю 3 н/о н/о +12.3 +9.1 81 +11 +11 1017.4 1006.1 +12.2 +21.7
21 14.09 Ю 2 н/о н/о +11.7 +6.4 70 +11 +11 1018.1 1006.7 +11.4 +21.7
00 15.09 С 1 н/о н/о +11.4 +6.3 71 +11 +11 1017.8 1006.4 +9.7 +21.7
03 15.09 СВ 2 н/о н/о +9.3 +7.2 87 +8 +8 1017.0 1005.6 +8.8 +21.7
06 15.09 С 2 н/о н/о +12.1 +6.2 67 +11 +11 1018.7 1007.4 +8.8
09 15.09 З 2 н/о н/о +18.8 +9.4 54 +20 +20 1018.6 1007.5 +8.8 +19.6
12 15.09 ЮЗ 2 н/о н/о +20.6 +9.3 48 +23 +23 комфорт 1017.2 1006.2 +8.8 +21.9
15 15.09 ЮЗ 3 н/о н/о +17.7 +11.5 67 +18 +18 1017.3 1006.2 +17.7 +21.9
18 15.09 ЮЗ 2 н/о н/о +13.5 +12.2 92 +13 +13 1018.6 1007.3 +13.5 +21.9
21 15.09 Ю 2 н/о н/о +12.0 +11.0 94 +11 +11 1019.0 1007.6 +11.6 +21.9
00 16.09 В 3 н/о н/о +11.1 +10.1 94 +9 +9 1018.4 1007.0 +10.9 +21.9
03 16.09 ЮВ 2 н/о н/о +13.5 +12.7 95 +13 +13 1018.3 1007.0 +10.9 +21.9
06 16.09 В 3 н/о н/о +12.4 +12.0 97 +11 +11 1019.4 1008.1 +10.9
09 16.09 ЮЗ 3 н/о н/о +20.8 +13.6 63 +24 +24 комфорт 1018.9 1007.9 +10.9 +21.0
12 16.09 ЮЗ 6 н/о н/о +19.9 +13.4 66 +21 +21 комфорт 1017.5 1006.5 +10.9 +21.7
15 16.09 ЮЗ 6 н/о н/о +18.7 +13.6 72 +19 +19 1016.1 1005.0 +18.7 +21.7
18 16.09 Ю 4 н/о н/о +15.1 +13.9 93 +14 +14 1016.3 1005.1 +15.1 +21.7
21 16.09 Ю 4 н/о н/о +14.1 +13.4 96 +13 +13 1017.5 1006.2 +14.1 +21.7
00 17.09 ЮВ 2 н/о н/о +12.5 +11.8 95 +12 +12 1016.8 1005.5 +12.4 +21.7
03 17.09 Ю 3 н/о н/о +11.9 +11.4 97 +10 +10 1016.8 1005.5 +10.5 +21.7
06 17.09 штиль 0 н/о н/о +12.8 +12.4 97 +12 +12 1017.4 1006.1 +8.7
09 17.09 ЮЗ 2 н/о н/о +19.1 +13.1 68 +21 +21 комфорт 1017.3 1006.2 +8.7 +20.1

 

Местоположение метеостанции Ламбертс-Бей (Южная Африка): широта -32.03 долгота 18.33 высота над уровнем моря 94 м.

В архиве по умолчанию представлена погода в Ламбертс-Бей за последнюю неделю. Архивные данные за месяц целиком и за предыдущие месяцы, начиная с января 2011 года, Вы можете получить, выбрав интересующий диапазон дат из раскрывающегося списка и нажав кнопку "Ввод!".


*Определитесь, кто Вы:
робот инопланетянин человек

Внимание! Время в таблицах - всемирное. Для получения местного времени необходимо прибавить поправку, которая равна 2 ч.

Смотрите также архив погоды в соседних городах и на ближайших метеорологических станциях:

Погода в Фридендале (Южная Африка) (44 км)
Погода в Клануильяме (Южная Африка) (55 км)
Погода на Мысе Колумбайн (Южная Африка) (100 км)
Погода в Лангебаанвеге (Южная Африка) (105 км)
Погода в Ниеувоудтвилле (Южная Африка) (105 км)
Погода в Лангебане (Южная Африка) (120 км)
Погода в Гилбеке (Южная Африка) (132 км)
Погода на Станции Excelsior Ceres (Южная Африка) (146 км)
Погода в Кальвинии (Южная Африка) (150 км)
Погода в Малмсбери (Южная Африка) (163 км)

Пояснения к столбцам:

Ветер - указаны скорость ветра в м/с - средняя за 10 мин, порывы в срок и между сроками (в фигурных скобках) и направление, откуда дует ветер: С - северный, СВ - северо-восточный, В - восточный, ЮВ - юго-восточный, Ю - южный, ЮЗ - юго-западный, З - западный, СЗ - северо-западный.
Видимость - горизонтальная дальность видимости в метрах или километрах. При видимости от 1 до 10 км при отсутствии осадков обычно наблюдается дымка, при ухудшении видимости до 1 км и менее - туман. В сухую погоду видимость может ухудшаться дымом, пылью или мглою.
Явления - указаны атмосферные явления, наблюдавшиеся в срок или в последний час перед сроком; фигурными скобками обозначены явления, наблюдавшиеся между сроками (за 1-3 часа до срока); квадратными скобками обозначены град или гололедные отложения с указанием их диаметра в мм.
Облачность - указаны через наклонную черту общая и нижняя облачность в баллах и высота нижней границы облаков в метрах; квадратными скобками обозначены формы облаков: Ci - перистые, Cs - перисто-слоистые, Cc - перисто-кучевые, Ac - высококучевые, As - высокослоистые, Sc - слоисто-кучевые, Ns - слоисто-дождевые, Cu - кучевые, Cb - кучево-дождевые. Подробнее классификацию облаков см. в Атласе облаков (PDF).
T - Температура воздуха - температура, измеренная на высоте 2 м над землей.
Td - Температура точки росы - температура, при понижении до которой содержащийся в воздухе водяной пар достигнет насыщения.
f - Относительная влажность воздуха - влажноcть воздуха, измеренная на высоте 2 м над землей.
Te - Эффективная температура - температура, которую ощущает одетый по сезону человек в тени. Характеристика душности погоды. При расчете учитывается влияние влажности воздуха и скорости ветра на теплоощущения человека.
Tes - Эффективная температура на солнце - температура, которую ощущает человек, с поправкой на солнечный нагрев. Характеристика знойности погоды. Зависит от высоты солнца над горизонтом, облачности и скорости ветра. Ночью, в пасмурную погоду, а также при ветре 12 м/с и более поправка равна нулю.
P - Атмосферное давление - приведенное к уровню моря атмосферное давление.
Po - Атмосферное давление - измеренное на уровне метеостанции атмосферное давление.
Tmin - Минимальная температура - минимум температуры воздуха на высоте 2 м над землей.
Tmax - Максимальная температура - максимум температуры воздуха на высоте 2 м над землей.
R - Количество осадков - Количество выпавших осадков за период времени, мм. При наведении курсора мыши на число - период времени, за который выпало указанное количество осадков.
R24 - Количество осадков - Количество выпавших осадков за 24 часа, мм.
S - Снежный покров - Высота снежного покрова, см. При наведении курсора мыши на число - состояние снежного покрова и степень покрытия местности в баллах.